User: anonymous   Login
Location: Hopkins Observatory
(42.6965°N, 73.1843°W)
Time: 01:50:24
(UTC-04:00)
Language:

RS-15 - Orbit

View from above orbital plane
View from above orbital plane
View from above satellite
View from above satellite

Ground track
Ground track

The orbit data is extracted from the following two-line orbital elements,

1 23439U 94085A   16150.94152189 -.00000033 +00000-0 +28060-3 0  9995
2 23439 064.8158 119.0385 0165420 310.9736 047.6975 11.27565797882364
Epoch (UTC): 29 May 2016 22:35:47
Eccentricity: 0.0165420
inclination: 64.8158°
perigee height: 1883 km
apogee height: 2161 km
right ascension of ascending node: 119.0385°
argument of perigee: 310.9736°
revolutions per day: 11.27565797
mean anomaly at epoch: 47.6975°
orbit number at epoch: 88236

The dashed part of the orbit path shows where the satellite is in the earth's shadow,  

DLR